Time,TemperatureF,DewpointF,PressureIn,WindDirection,WindDirectionDegrees,WindSpeedMPH,WindSpeedGustMPH,Humidity,HourlyPrecipIn,Conditions,Clouds,dailyrainin,SoftwareType,DateUTC
2013-01-04 00:01:00,42.4,27.0,29.50,North,6,0.0,3.1,54,0.00,,,0.00,LWC V2.10 B1813,2013-01-04 06:01:00,
2013-01-04 00:06:00,42.4,27.0,29.50,North,0,0.0,2.7,54,0.00,,,0.00,LWC V2.10 B1813,2013-01-04 06:06:00,
2013-01-04 00:11:00,42.4,27.0,29.50,North,353,3.1,3.1,54,0.00,,,0.00,LWC V2.10 B1813,2013-01-04 06:11:00,
2013-01-04 00:16:00,42.4,27.0,29.50,North,11,0.0,3.6,54,0.00,,,0.00,LWC V2.10 B1813,2013-01-04 06:16:00,
2013-01-04 00:21:00,42.4,27.0,29.50,North,353,0.0,0.0,54,0.00,,,0.00,LWC V2.10 B1813,2013-01-04 06:21:00,
2013-01-04 00:26:00,42.6,27.2,29.50,North,357,3.6,3.6,54,0.00,,,0.00,LWC V2.10 B1813,2013-01-04 06:26:00,
2013-01-04 00:31:00,42.4,27.0,29.50,North,0,4.0,4.0,54,0.00,,,0.00,LWC V2.10 B1813,2013-01-04 06:31:00,
2013-01-04 00:36:00,42.4,27.0,29.50,NNE,27,2.2,3.1,54,0.00,,,0.00,LWC V2.10 B1813,2013-01-04 06:36:00,
2013-01-04 00:41:00,42.4,27.0,29.50,NNE,31,0.0,0.0,54,0.00,,,0.00,LWC V2.10 B1813,2013-01-04 06:41:00,
2013-01-04 00:46:00,42.3,26.8,29.50,NNE,32,0.0,0.0,54,0.00,,,0.00,LWC V2.10 B1813,2013-01-04 06:46:00,
2013-01-04 00:51:00,42.3,26.8,29.50,NE,37,0.0,0.0,54,0.00,,,0.00,LWC V2.10 B1813,2013-01-04 06:51:00,
2013-01-04 00:56:00,42.4,27.0,29.50,NNE,27,0.0,0.0,54,0.00,,,0.00,LWC V2.10 B1813,2013-01-04 06:56:00,
2013-01-04 01:01:00,42.4,27.0,29.50,North,7,0.0,0.0,54,0.00,,,0.00,LWC V2.10 B1813,2013-01-04 07:01:00,
2013-01-04 01:06:00,42.4,27.0,29.50,North,5,0.0,2.7,54,0.00,,,0.00,LWC V2.10 B1813,2013-01-04 07:06:00,
2013-01-04 01:11:00,42.4,27.0,29.50,NNE,14,3.6,4.9,54,0.00,,,0.00,LWC V2.10 B1813,2013-01-04 07:11:00,
2013-01-04 01:16:00,42.4,27.0,29.50,NE,35,2.2,2.2,54,0.00,,,0.00,LWC V2.10 B1813,2013-01-04 07:16:00,
2013-01-04 01:21:00,42.4,27.0,29.50,North,0,2.2,2.7,54,0.00,,,0.00,LWC V2.10 B1813,2013-01-04 07:21:00,
2013-01-04 01:26:00,42.4,27.0,29.50,North,353,0.0,0.0,54,0.00,,,0.00,LWC V2.10 B1813,2013-01-04 07:26:00,
2013-01-04 01:31:00,42.4,27.0,29.53,NW,308,0.0,2.7,54,0.00,,,0.00,LWC V2.10 B1813,2013-01-04 07:31:00,
2013-01-04 01:36:00,42.4,27.0,29.53,WNW,293,2.7,3.1,54,0.00,,,0.00,LWC V2.10 B1813,2013-01-04 07:36:00,
2013-01-04 01:41:00,42.4,27.0,29.53,NNW,341,0.0,2.7,54,0.00,,,0.00,LWC V2.10 B1813,2013-01-04 07:41:00,
2013-01-04 01:46:00,42.4,27.0,29.53,West,280,2.7,3.6,54,0.00,,,0.00,LWC V2.10 B1813,2013-01-04 07:46:00,
2013-01-04 01:51:00,42.4,27.4,29.53,NNW,341,3.1,3.1,55,0.00,,,0.00,LWC V2.10 B1813,2013-01-04 07:51:00,
2013-01-04 01:56:00,42.3,27.3,29.53,NNW,333,0.0,4.0,55,0.00,,,0.00,LWC V2.10 B1813,2013-01-04 07:56:00,
2013-01-04 02:01:00,42.3,27.7,29.53,NNW,328,2.2,3.6,56,0.00,,,0.00,LWC V2.10 B1813,2013-01-04 08:01:00,
2013-01-04 02:06:00,42.1,27.5,29.53,NNW,340,3.6,5.4,56,0.00,,,0.00,LWC V2.10 B1813,2013-01-04 08:06:00,
2013-01-04 02:11:00,41.9,27.4,29.53,NW,321,2.2,3.6,56,0.00,,,0.00,LWC V2.10 B1813,2013-01-04 08:11:00,
2013-01-04 02:16:00,41.9,27.8,29.56,NNW,341,0.0,2.2,57,0.00,,,0.00,LWC V2.10 B1813,2013-01-04 08:16:00,
2013-01-04 02:22:00,41.9,27.8,29.56,NNW,341,0.0,0.0,57,0.00,,,0.00,LWC V2.10 B1813,2013-01-04 08:22:00,
2013-01-04 02:27:00,41.7,27.6,29.56,NNW,341,0.0,0.0,57,0.00,,,0.00,LWC V2.10 B1813,2013-01-04 08:27:00,
2013-01-04 02:32:00,41.7,28.0,29.56,NNW,341,0.0,0.0,58,0.00,,,0.00,LWC V2.10 B1813,2013-01-04 08:32:00,
2013-01-04 02:37:00,41.7,28.5,29.56,WNW,293,2.7,2.7,59,0.00,,,0.00,LWC V2.10 B1813,2013-01-04 08:37:00,
2013-01-04 02:42:00,41.0,27.8,29.56,NW,320,4.0,6.3,59,0.00,,,0.00,LWC V2.10 B1813,2013-01-04 08:42:00,
2013-01-04 02:47:00,40.3,27.9,29.56,North,7,3.1,6.3,61,0.00,,,0.00,LWC V2.10 B1813,2013-01-04 08:47:00,
2013-01-04 02:52:00,39.6,28.0,29.56,North,357,2.2,2.7,63,0.00,,,0.00,LWC V2.10 B1813,2013-01-04 08:52:00,
2013-01-04 02:57:00,39.2,28.4,29.56,NW,317,4.0,5.8,65,0.00,,,0.00,LWC V2.10 B1813,2013-01-04 08:57:00,
2013-01-04 03:02:00,38.3,28.7,29.56,NNW,346,3.6,8.7,68,0.00,,,0.00,LWC V2.10 B1813,2013-01-04 09:02:00,
2013-01-04 03:07:00,37.8,28.9,29.56,North,353,5.4,8.1,70,0.00,,,0.00,LWC V2.10 B1813,2013-01-04 09:07:00,
2013-01-04 03:12:00,37.6,29.4,29.56,North,7,3.1,8.7,72,0.00,,,0.00,LWC V2.10 B1813,2013-01-04 09:12:00,
2013-01-04 03:17:00,37.2,29.4,29.56,North,357,3.6,6.3,73,0.00,,,0.00,LWC V2.10 B1813,2013-01-04 09:17:00,
2013-01-04 03:22:00,37.0,29.5,29.56,North,353,2.7,7.6,74,0.00,,,0.00,LWC V2.10 B1813,2013-01-04 09:22:00,
2013-01-04 03:27:00,37.0,29.9,29.56,NNE,13,3.1,5.8,75,0.00,,,0.00,LWC V2.10 B1813,2013-01-04 09:27:00,
2013-01-04 03:32:00,37.0,29.9,29.56,North,0,4.0,6.3,75,0.00,,,0.00,LWC V2.10 B1813,2013-01-04 09:32:00,
2013-01-04 03:37:00,37.2,30.4,29.56,NW,320,3.1,6.3,76,0.00,,,0.00,LWC V2.10 B1813,2013-01-04 09:37:00,
2013-01-04 03:42:00,37.0,30.2,29.56,NNW,335,5.4,7.6,76,0.00,,,0.00,LWC V2.10 B1813,2013-01-04 09:42:00,
2013-01-04 03:47:00,37.0,30.5,29.56,WNW,303,2.7,4.0,77,0.00,,,0.00,LWC V2.10 B1813,2013-01-04 09:47:00,
2013-01-04 03:52:00,37.0,30.5,29.56,North,353,3.6,3.6,77,0.00,,,0.00,LWC V2.10 B1813,2013-01-04 09:52:00,
2013-01-04 03:57:00,37.0,30.5,29.56,NNW,329,2.7,4.0,77,0.00,,,0.00,LWC V2.10 B1813,2013-01-04 09:57:00,
2013-01-04 04:02:00,37.0,30.8,29.56,NNW,339,2.7,3.1,78,0.00,,,0.00,LWC V2.10 B1813,2013-01-04 10:02:00,
2013-01-04 04:07:00,36.9,30.7,29.56,North,0,4.0,4.0,78,0.00,,,0.00,LWC V2.10 B1813,2013-01-04 10:07:00,
2013-01-04 04:12:00,36.5,30.3,29.56,NNE,15,3.1,6.7,78,0.00,,,0.00,LWC V2.10 B1813,2013-01-04 10:12:00,
2013-01-04 04:17:00,36.3,30.1,29.56,NNW,344,3.6,7.6,78,0.00,,,0.04,LWC V2.10 B1813,2013-01-04 10:17:00,
2013-01-04 04:22:00,36.3,30.4,29.56,NW,318,3.6,5.8,79,0.00,,,0.04,LWC V2.10 B1813,2013-01-04 10:22:00,
2013-01-04 04:27:00,36.3,30.4,29.56,NNW,339,4.9,4.9,79,0.00,,,0.04,LWC V2.10 B1813,2013-01-04 10:27:00,
2013-01-04 04:32:00,36.3,30.4,29.59,NNW,337,2.2,4.0,79,0.00,,,0.04,LWC V2.10 B1813,2013-01-04 10:32:00,
2013-01-04 04:37:00,36.0,30.1,29.59,North,353,3.1,6.3,79,0.00,,,0.04,LWC V2.10 B1813,2013-01-04 10:37:00,
2013-01-04 04:42:00,35.8,30.2,29.59,NW,307,5.4,7.6,80,0.00,,,0.04,LWC V2.10 B1813,2013-01-04 10:42:00,
2013-01-04 04:47:00,35.6,30.0,29.56,North,357,4.0,4.9,80,0.00,,,0.04,LWC V2.10 B1813,2013-01-04 10:47:00,
2013-01-04 04:52:00,35.1,29.5,29.56,NNW,340,5.4,5.4,80,0.00,,,0.04,LWC V2.10 B1813,2013-01-04 10:52:00,
2013-01-04 04:57:00,34.9,29.3,29.56,NNW,343,2.2,5.4,80,0.00,,,0.04,LWC V2.10 B1813,2013-01-04 10:57:00,
2013-01-04 05:02:00,34.9,29.7,29.59,NNW,346,5.8,5.8,81,0.00,,,0.04,LWC V2.10 B1813,2013-01-04 11:02:00,
2013-01-04 05:07:00,34.9,29.7,29.59,NNW,341,0.0,5.4,81,0.00,,,0.04,LWC V2.10 B1813,2013-01-04 11:07:00,
2013-01-04 05:12:00,34.9,29.7,29.59,North,10,0.0,3.6,81,0.00,,,0.04,LWC V2.10 B1813,2013-01-04 11:12:00,
2013-01-04 05:17:00,35.1,30.1,29.59,North,357,2.2,4.0,82,0.00,,,0.04,LWC V2.10 B1813,2013-01-04 11:17:00,
2013-01-04 05:22:00,35.1,30.1,29.59,NW,305,3.1,4.9,82,0.00,,,0.04,LWC V2.10 B1813,2013-01-04 11:22:00,
2013-01-04 05:27:00,35.1,30.1,29.59,North,353,2.7,3.1,82,0.00,,,0.04,LWC V2.10 B1813,2013-01-04 11:27:00,
2013-01-04 05:32:00,35.1,30.1,29.59,North,10,3.1,4.0,82,0.00,,,0.04,LWC V2.10 B1813,2013-01-04 11:32:00,
2013-01-04 05:37:00,35.1,30.1,29.59,NNW,337,4.0,4.0,82,0.00,,,0.04,LWC V2.10 B1813,2013-01-04 11:37:00,
2013-01-04 05:42:00,35.1,30.4,29.59,NW,314,5.8,6.3,83,0.00,,,0.04,LWC V2.10 B1813,2013-01-04 11:42:00,
2013-01-04 05:47:00,35.1,30.4,29.59,North,353,4.0,4.0,83,0.00,,,0.04,LWC V2.10 B1813,2013-01-04 11:47:00,
2013-01-04 05:52:00,35.1,30.4,29.59,NNW,339,3.1,3.6,83,0.00,,,0.04,LWC V2.10 B1813,2013-01-04 11:52:00,
2013-01-04 05:57:00,35.1,30.4,29.59,North,350,2.2,3.1,83,0.00,,,0.04,LWC V2.10 B1813,2013-01-04 11:57:00,
2013-01-04 06:02:00,35.2,30.6,29.59,NNW,332,0.0,3.6,83,0.00,,,0.04,LWC V2.10 B1813,2013-01-04 12:02:00,
2013-01-04 06:07:00,35.1,30.4,29.59,NNW,335,3.1,5.4,83,0.00,,,0.04,LWC V2.10 B1813,2013-01-04 12:07:00,
2013-01-04 06:12:00,34.9,30.3,29.59,NNW,332,3.1,5.8,83,0.00,,,0.04,LWC V2.10 B1813,2013-01-04 12:12:00,
2013-01-04 06:17:00,34.9,30.3,29.59,NW,307,2.2,5.4,83,0.00,,,0.04,LWC V2.10 B1813,2013-01-04 12:17:00,
2013-01-04 06:22:00,35.1,30.7,29.59,NW,317,2.2,4.0,84,0.00,,,0.04,LWC V2.10 B1813,2013-01-04 12:22:00,
2013-01-04 06:27:00,34.9,30.5,29.59,NNW,343,2.7,4.0,84,0.00,,,0.08,LWC V2.10 B1813,2013-01-04 12:27:00,
2013-01-04 06:32:00,34.9,30.5,29.59,North,353,5.8,6.3,84,0.00,,,0.08,LWC V2.10 B1813,2013-01-04 12:32:00,
2013-01-04 06:37:00,34.9,30.5,29.59,NNE,21,3.1,6.7,84,0.00,,,0.08,LWC V2.10 B1813,2013-01-04 12:37:00,
2013-01-04 06:42:00,34.7,30.4,29.59,ENE,63,3.1,4.9,84,0.00,,,0.08,LWC V2.10 B1813,2013-01-04 12:42:00,
2013-01-04 06:47:00,34.5,30.2,29.59,NE,37,2.2,2.2,84,0.00,,,0.08,LWC V2.10 B1813,2013-01-04 12:47:00,
2013-01-04 06:52:00,34.5,30.2,29.59,North,5,0.0,0.0,84,0.00,,,0.08,LWC V2.10 B1813,2013-01-04 12:52:00,
2013-01-04 06:57:00,34.7,30.7,29.59,North,6,0.0,0.0,85,0.00,,,0.08,LWC V2.10 B1813,2013-01-04 12:57:00,
2013-01-04 07:02:00,34.9,30.8,29.59,NNW,334,0.0,0.0,85,0.00,,,0.08,LWC V2.10 B1813,2013-01-04 13:02:00,
2013-01-04 07:07:00,34.9,30.8,29.59,NNW,340,0.0,0.0,85,0.00,,,0.08,LWC V2.10 B1813,2013-01-04 13:07:00,
2013-01-04 07:12:00,35.1,31.0,29.59,North,0,0.0,3.1,85,0.00,,,0.08,LWC V2.10 B1813,2013-01-04 13:12:00,
2013-01-04 07:17:00,35.1,31.0,29.59,North,0,7.2,7.2,85,0.00,,,0.08,LWC V2.10 B1813,2013-01-04 13:17:00,
2013-01-04 07:22:00,35.1,31.3,29.59,North,350,0.0,2.7,86,0.00,,,0.08,LWC V2.10 B1813,2013-01-04 13:22:00,
2013-01-04 07:27:00,35.1,31.3,29.59,NW,307,2.7,4.0,86,0.00,,,0.08,LWC V2.10 B1813,2013-01-04 13:27:00,
2013-01-04 07:32:00,35.1,31.3,29.59,WNW,300,3.1,3.1,86,0.00,,,0.08,LWC V2.10 B1813,2013-01-04 13:32:00,
2013-01-04 07:37:00,35.1,31.3,29.59,NW,322,2.7,2.7,86,0.00,,,0.08,LWC V2.10 B1813,2013-01-04 13:37:00,
2013-01-04 07:42:00,35.2,31.5,29.59,North,357,6.3,6.3,86,0.00,,,0.08,LWC V2.10 B1813,2013-01-04 13:42:00,
2013-01-04 07:47:00,35.2,31.5,29.59,NW,323,0.0,0.0,86,0.00,,,0.08,LWC V2.10 B1813,2013-01-04 13:47:00,
2013-01-04 07:52:00,35.4,31.7,29.59,NNW,341,3.6,3.6,86,0.00,,,0.08,LWC V2.10 B1813,2013-01-04 13:52:00,
2013-01-04 07:57:00,35.4,31.9,29.59,North,357,4.9,4.9,87,0.00,,,0.08,LWC V2.10 B1813,2013-01-04 13:57:00,
2013-01-04 08:02:00,35.4,31.9,29.59,NNW,332,0.0,5.4,87,0.00,,,0.08,LWC V2.10 B1813,2013-01-04 14:02:00,
2013-01-04 08:07:00,35.4,31.9,29.59,NNW,343,3.1,3.1,87,0.00,,,0.08,LWC V2.10 B1813,2013-01-04 14:07:00,
2013-01-04 08:12:00,35.6,31.8,29.59,East,101,3.6,3.6,86,0.00,,,0.08,LWC V2.10 B1813,2013-01-04 14:12:00,
2013-01-04 08:17:00,35.6,31.8,29.59,North,357,0.0,5.4,86,0.00,,,0.08,LWC V2.10 B1813,2013-01-04 14:17:00,
2013-01-04 08:22:00,35.6,31.8,29.59,NNE,31,2.7,7.6,86,0.00,,,0.08,LWC V2.10 B1813,2013-01-04 14:22:00,
2013-01-04 08:27:00,35.8,32.0,29.59,ENE,69,3.1,3.6,86,0.00,,,0.08,LWC V2.10 B1813,2013-01-04 14:27:00,
2013-01-04 08:32:00,35.8,32.3,29.59,NNE,32,0.0,3.6,87,0.00,,,0.08,LWC V2.10 B1813,2013-01-04 14:32:00,
2013-01-04 08:37:00,35.8,32.3,29.59,ENE,75,4.0,4.0,87,0.00,,,0.08,LWC V2.10 B1813,2013-01-04 14:37:00,
2013-01-04 08:42:00,36.0,32.5,29.59,NE,44,3.6,5.4,87,0.00,,,0.08,LWC V2.10 B1813,2013-01-04 14:42:00,
2013-01-04 08:47:00,36.0,32.5,29.59,NNE,18,2.7,4.0,87,0.00,,,0.08,LWC V2.10 B1813,2013-01-04 14:47:00,
2013-01-04 08:52:00,36.0,32.5,29.59,North,357,3.1,3.6,87,0.00,,,0.08,LWC V2.10 B1813,2013-01-04 14:52:00,
2013-01-04 08:57:00,36.1,32.7,29.59,NE,56,0.0,0.0,87,0.00,,,0.08,LWC V2.10 B1813,2013-01-04 14:57:00,
2013-01-04 09:02:00,36.1,32.7,29.62,ENE,75,0.0,4.0,87,0.00,,,0.08,LWC V2.10 B1813,2013-01-04 15:02:00,
2013-01-04 09:07:00,36.3,32.8,29.62,NNE,32,2.2,3.1,87,0.00,,,0.08,LWC V2.10 B1813,2013-01-04 15:07:00,
2013-01-04 09:12:00,36.3,32.8,29.62,NE,43,0.0,2.7,87,0.00,,,0.08,LWC V2.10 B1813,2013-01-04 15:12:00,
2013-01-04 09:17:00,36.3,32.8,29.62,East,91,3.6,3.6,87,0.00,,,0.08,LWC V2.10 B1813,2013-01-04 15:17:00,
2013-01-04 09:22:00,36.3,32.8,29.62,NNE,30,3.1,4.0,87,0.00,,,0.08,LWC V2.10 B1813,2013-01-04 15:22:00,
2013-01-04 09:27:00,36.5,33.0,29.62,NNE,26,2.2,5.4,87,0.00,,,0.08,LWC V2.10 B1813,2013-01-04 15:27:00,
2013-01-04 09:32:00,36.3,32.8,29.62,North,353,2.7,3.1,87,0.00,,,0.08,LWC V2.10 B1813,2013-01-04 15:32:00,
2013-01-04 09:37:00,36.3,33.1,29.62,NNE,31,0.0,5.8,88,0.00,,,0.08,LWC V2.10 B1813,2013-01-04 15:37:00,
2013-01-04 09:42:00,36.5,33.3,29.62,North,357,2.7,4.0,88,0.00,,,0.08,LWC V2.10 B1813,2013-01-04 15:42:00,
2013-01-04 09:47:00,36.7,33.5,29.62,NNE,18,0.0,2.7,88,0.00,,,0.08,LWC V2.10 B1813,2013-01-04 15:47:00,
2013-01-04 09:52:00,36.9,33.6,29.62,NE,46,3.1,3.1,88,0.00,,,0.08,LWC V2.10 B1813,2013-01-04 15:52:00,
2013-01-04 09:57:00,36.9,33.6,29.62,NE,50,2.7,3.1,88,0.00,,,0.08,LWC V2.10 B1813,2013-01-04 15:57:00,
2013-01-04 10:02:00,36.9,33.6,29.62,NE,34,4.0,4.0,88,0.00,,,0.08,LWC V2.10 B1813,2013-01-04 16:02:00,
2013-01-04 10:07:00,37.0,33.8,29.62,ENE,59,0.0,3.1,88,0.00,,,0.08,LWC V2.10 B1813,2013-01-04 16:07:00,
2013-01-04 10:12:00,37.0,33.8,29.62,NE,34,0.0,2.7,88,0.00,,,0.08,LWC V2.10 B1813,2013-01-04 16:12:00,
2013-01-04 10:17:00,37.2,34.0,29.62,NNE,23,2.7,3.6,88,0.00,,,0.08,LWC V2.10 B1813,2013-01-04 16:17:00,
2013-01-04 10:22:00,37.4,34.2,29.62,NE,48,2.7,3.1,88,0.00,,,0.08,LWC V2.10 B1813,2013-01-04 16:22:00,
2013-01-04 10:27:00,37.6,34.4,29.62,ENE,62,0.0,2.2,88,0.00,,,0.08,LWC V2.10 B1813,2013-01-04 16:27:00,
2013-01-04 10:32:00,37.8,34.5,29.62,NE,50,2.2,3.1,88,0.00,,,0.08,LWC V2.10 B1813,2013-01-04 16:32:00,
2013-01-04 10:37:00,37.6,34.4,29.62,ENE,57,0.0,3.1,88,0.00,,,0.08,LWC V2.10 B1813,2013-01-04 16:37:00,
2013-01-04 10:42:00,37.6,34.4,29.62,ENE,78,2.7,3.6,88,0.00,,,0.08,LWC V2.10 B1813,2013-01-04 16:42:00,
2013-01-04 10:47:00,37.9,34.7,29.62,East,89,0.0,3.1,88,0.00,,,0.08,LWC V2.10 B1813,2013-01-04 16:47:00,
2013-01-04 10:52:00,38.1,34.9,29.62,NNE,19,2.2,2.7,88,0.00,,,0.08,LWC V2.10 B1813,2013-01-04 16:52:00,
2013-01-04 10:57:00,38.1,34.9,29.62,NE,51,0.0,0.0,88,0.00,,,0.08,LWC V2.10 B1813,2013-01-04 16:57:00,
2013-01-04 11:02:00,38.1,34.9,29.62,East,85,2.7,3.6,88,0.00,,,0.08,LWC V2.10 B1813,2013-01-04 17:02:00,
2013-01-04 11:07:00,38.3,35.1,29.62,NE,49,0.0,0.0,88,0.00,,,0.08,LWC V2.10 B1813,2013-01-04 17:07:00,
2013-01-04 11:12:00,38.5,35.2,29.62,ENE,66,0.0,0.0,88,0.00,,,0.08,LWC V2.10 B1813,2013-01-04 17:12:00,
2013-01-04 11:17:00,38.7,35.4,29.62,ENE,58,0.0,2.7,88,0.00,,,0.08,LWC V2.10 B1813,2013-01-04 17:17:00,
2013-01-04 11:22:00,38.8,35.6,29.62,NE,54,0.0,0.0,88,0.00,,,0.08,LWC V2.10 B1813,2013-01-04 17:22:00,
2013-01-04 11:27:00,39.0,35.8,29.62,ENE,58,3.1,3.1,88,0.00,,,0.08,LWC V2.10 B1813,2013-01-04 17:27:00,
2013-01-04 11:32:00,39.0,35.8,29.59,NE,43,3.1,4.0,88,0.00,,,0.08,LWC V2.10 B1813,2013-01-04 17:32:00,
2013-01-04 11:37:00,39.2,36.0,29.59,NE,52,0.0,3.6,88,0.00,,,0.08,LWC V2.10 B1813,2013-01-04 17:37:00,
2013-01-04 11:42:00,39.4,36.1,29.59,NNE,31,0.0,4.0,88,0.00,,,0.08,LWC V2.10 B1813,2013-01-04 17:42:00,
2013-01-04 11:47:00,39.7,36.2,29.59,ENE,73,0.0,3.1,87,0.00,,,0.08,LWC V2.10 B1813,2013-01-04 17:47:00,
2013-01-04 11:52:00,39.6,36.0,29.59,East,87,3.1,3.6,87,0.00,,,0.08,LWC V2.10 B1813,2013-01-04 17:52:00,
2013-01-04 11:57:00,39.7,36.2,29.59,ENE,75,3.6,5.8,87,0.00,,,0.08,LWC V2.10 B1813,2013-01-04 17:57:00,
2013-01-04 11:59:00,39.7,36.2,29.59,ENE,75,3.6,5.8,87,0.00,,,0.08,LWC V2.10 B1813,2013-01-04 17:59:00,
2013-01-04 12:04:00,39.7,36.2,29.59,ENE,58,5.4,5.4,87,0.00,,,0.08,LWC V2.10 B1813,2013-01-04 18:04:00,
2013-01-04 12:09:00,39.6,36.0,29.59,North,-999,-999.0,5.4,87,0.00,,,0.08,LWC V2.10 B1813,2013-01-04 18:09:00,
2013-01-04 12:14:00,39.7,35.9,29.56,North,-999,-999.0,5.4,86,0.00,,,0.08,LWC V2.10 B1813,2013-01-04 18:14:00,
2013-01-04 12:19:00,39.9,36.1,29.56,East,87,0.0,0.0,86,0.00,,,0.08,LWC V2.10 B1813,2013-01-04 18:19:00,
2013-01-04 12:24:00,40.1,36.3,29.56,NE,56,3.6,5.4,86,0.00,,,0.08,LWC V2.10 B1813,2013-01-04 18:24:00,
2013-01-04 12:29:00,39.9,36.1,29.56,ENE,62,2.2,3.1,86,0.00,,,0.08,LWC V2.10 B1813,2013-01-04 18:29:00,
2013-01-04 12:34:00,39.9,36.1,29.56,ENE,60,0.0,3.6,86,0.00,,,0.08,LWC V2.10 B1813,2013-01-04 18:34:00,
2013-01-04 12:39:00,40.1,36.3,29.56,ENE,58,2.7,3.1,86,0.00,,,0.08,LWC V2.10 B1813,2013-01-04 18:39:00,
2013-01-04 12:44:00,40.3,36.4,29.56,ENE,57,3.6,3.6,86,0.00,,,0.08,LWC V2.10 B1813,2013-01-04 18:44:00,
2013-01-04 12:49:00,40.5,36.6,29.56,ENE,75,2.2,4.9,86,0.00,,,0.08,LWC V2.10 B1813,2013-01-04 18:49:00,
2013-01-04 12:54:00,40.5,36.3,29.56,East,87,0.0,3.6,85,0.00,,,0.08,LWC V2.10 B1813,2013-01-04 18:54:00,
2013-01-04 12:59:00,40.5,36.3,29.56,NE,34,2.7,5.8,85,0.00,,,0.08,LWC V2.10 B1813,2013-01-04 18:59:00,
2013-01-04 13:04:00,40.5,36.3,29.56,ENE,70,0.0,4.0,85,0.00,,,0.08,LWC V2.10 B1813,2013-01-04 19:04:00,
2013-01-04 13:09:00,40.3,36.1,29.56,North,-999,-999.0,4.0,85,0.00,,,0.08,LWC V2.10 B1813,2013-01-04 19:09:00,
2013-01-04 13:14:00,40.3,36.1,29.53,NNE,28,2.2,3.6,85,0.00,,,0.08,LWC V2.10 B1813,2013-01-04 19:14:00,
2013-01-04 13:19:00,40.3,36.1,29.53,NE,45,2.7,3.6,85,0.00,,,0.08,LWC V2.10 B1813,2013-01-04 19:19:00,
2013-01-04 13:24:00,40.3,36.1,29.53,East,95,2.2,4.0,85,0.00,,,0.12,LWC V2.10 B1813,2013-01-04 19:24:00,
2013-01-04 13:29:00,40.3,36.4,29.53,NNE,22,0.0,2.7,86,0.00,,,0.12,LWC V2.10 B1813,2013-01-04 19:29:00,
2013-01-04 13:34:00,40.3,36.4,29.53,East,87,0.0,3.6,86,0.00,,,0.12,LWC V2.10 B1813,2013-01-04 19:34:00,
2013-01-04 13:39:00,40.3,36.4,29.53,East,84,4.0,4.9,86,0.00,,,0.12,LWC V2.10 B1813,2013-01-04 19:39:00,
2013-01-04 13:44:00,40.3,36.4,29.53,ENE,63,2.2,2.2,86,0.00,,,0.12,LWC V2.10 B1813,2013-01-04 19:44:00,
2013-01-04 13:49:00,40.5,36.6,29.53,ENE,63,2.7,3.1,86,0.00,,,0.12,LWC V2.10 B1813,2013-01-04 19:49:00,
2013-01-04 13:54:00,40.3,36.4,29.53,ENE,64,0.0,0.0,86,0.00,,,0.12,LWC V2.10 B1813,2013-01-04 19:54:00,
2013-01-04 13:59:00,40.5,36.6,29.53,ENE,61,0.0,2.2,86,0.00,,,0.12,LWC V2.10 B1813,2013-01-04 19:59:00,
2013-01-04 14:04:00,40.5,36.6,29.53,NNE,28,0.0,3.1,86,0.00,,,0.12,LWC V2.10 B1813,2013-01-04 20:04:00,
2013-01-04 14:09:00,40.5,36.6,29.53,ENE,57,4.0,4.0,86,0.00,,,0.12,LWC V2.10 B1813,2013-01-04 20:09:00,
2013-01-04 14:14:00,40.3,36.4,29.53,East,82,0.0,2.7,86,0.00,,,0.12,LWC V2.10 B1813,2013-01-04 20:14:00,
2013-01-04 14:19:00,40.3,36.4,29.53,ENE,69,2.2,3.6,86,0.00,,,0.12,LWC V2.10 B1813,2013-01-04 20:19:00,
2013-01-04 14:24:00,40.1,36.3,29.53,ENE,63,2.7,3.6,86,0.00,,,0.12,LWC V2.10 B1813,2013-01-04 20:24:00,
2013-01-04 14:29:00,40.3,36.4,29.50,ENE,65,2.7,2.7,86,0.00,,,0.12,LWC V2.10 B1813,2013-01-04 20:29:00,
2013-01-04 14:34:00,40.3,36.7,29.50,ENE,74,3.1,4.9,87,0.00,,,0.12,LWC V2.10 B1813,2013-01-04 20:34:00,
2013-01-04 14:39:00,39.9,36.4,29.50,NE,54,2.2,3.1,87,0.00,,,0.12,LWC V2.10 B1813,2013-01-04 20:39:00,
2013-01-04 14:44:00,40.3,36.7,29.50,ENE,66,2.2,2.2,87,0.00,,,0.12,LWC V2.10 B1813,2013-01-04 20:44:00,
2013-01-04 14:49:00,40.3,36.7,29.50,ENE,70,2.2,2.7,87,0.00,,,0.12,LWC V2.10 B1813,2013-01-04 20:49:00,
2013-01-04 14:54:00,40.5,36.9,29.50,NNE,30,0.0,2.7,87,0.00,,,0.12,LWC V2.10 B1813,2013-01-04 20:54:00,
2013-01-04 14:59:00,40.6,37.1,29.50,North,0,3.6,3.6,87,0.00,,,0.12,LWC V2.10 B1813,2013-01-04 20:59:00,
2013-01-04 15:04:00,40.6,37.1,29.50,ENE,58,2.2,3.1,87,0.00,,,0.12,LWC V2.10 B1813,2013-01-04 21:04:00,
2013-01-04 15:09:00,40.8,37.3,29.50,NE,44,2.2,2.2,87,0.00,,,0.12,LWC V2.10 B1813,2013-01-04 21:09:00,
2013-01-04 15:14:00,40.6,37.1,29.50,NNE,25,0.0,0.0,87,0.00,,,0.12,LWC V2.10 B1813,2013-01-04 21:14:00,
2013-01-04 15:19:00,40.6,37.1,29.50,NNE,33,0.0,0.0,87,0.00,,,0.12,LWC V2.10 B1813,2013-01-04 21:19:00,
2013-01-04 15:24:00,40.6,37.1,29.50,ENE,57,2.2,3.6,87,0.00,,,0.12,LWC V2.10 B1813,2013-01-04 21:24:00,
2013-01-04 15:29:00,40.5,36.9,29.50,East,86,2.7,4.0,87,0.00,,,0.12,LWC V2.10 B1813,2013-01-04 21:29:00,
2013-01-04 15:34:00,40.5,36.9,29.50,ENE,72,3.1,3.6,87,0.00,,,0.12,LWC V2.10 B1813,2013-01-04 21:34:00,
2013-01-04 15:39:00,40.5,36.9,29.50,ENE,73,0.0,0.0,87,0.00,,,0.12,LWC V2.10 B1813,2013-01-04 21:39:00,
2013-01-04 15:44:00,40.6,37.1,29.50,NE,44,0.0,0.0,87,0.00,,,0.12,LWC V2.10 B1813,2013-01-04 21:44:00,
2013-01-04 15:49:00,40.6,37.4,29.50,NE,38,0.0,0.0,88,0.00,,,0.12,LWC V2.10 B1813,2013-01-04 21:49:00,
2013-01-04 15:54:00,40.5,37.2,29.50,NNE,32,0.0,2.2,88,0.00,,,0.12,LWC V2.10 B1813,2013-01-04 21:54:00,
2013-01-04 15:59:00,40.5,36.9,29.50,NE,35,0.0,0.0,87,0.00,,,0.12,LWC V2.10 B1813,2013-01-04 21:59:00,
2013-01-04 16:04:00,40.5,36.9,29.50,NE,35,0.0,0.0,87,0.00,,,0.12,LWC V2.10 B1813,2013-01-04 22:04:00,
2013-01-04 16:09:00,40.5,36.9,29.50,NNE,22,0.0,2.7,87,0.00,,,0.12,LWC V2.10 B1813,2013-01-04 22:09:00,
2013-01-04 16:14:00,40.5,36.9,29.50,NE,41,0.0,2.7,87,0.00,,,0.12,LWC V2.10 B1813,2013-01-04 22:14:00,
2013-01-04 16:19:00,40.5,37.2,29.50,NNE,33,0.0,0.0,88,0.00,,,0.12,LWC V2.10 B1813,2013-01-04 22:19:00,
2013-01-04 16:24:00,40.5,37.2,29.50,ENE,60,0.0,0.0,88,0.00,,,0.12,LWC V2.10 B1813,2013-01-04 22:24:00,
2013-01-04 16:29:00,40.3,37.0,29.50,ENE,60,0.0,0.0,88,0.00,,,0.16,LWC V2.10 B1813,2013-01-04 22:29:00,
2013-01-04 16:34:00,40.3,37.0,29.50,NE,46,0.0,2.2,88,0.00,,,0.16,LWC V2.10 B1813,2013-01-04 22:34:00,
2013-01-04 16:39:00,40.3,37.0,29.50,NE,51,0.0,0.0,88,0.00,,,0.16,LWC V2.10 B1813,2013-01-04 22:39:00,
2013-01-04 16:44:00,40.3,37.0,29.50,NE,44,0.0,0.0,88,0.00,,,0.16,LWC V2.10 B1813,2013-01-04 22:44:00,
2013-01-04 16:49:00,40.3,37.0,29.50,NE,45,0.0,0.0,88,0.00,,,0.16,LWC V2.10 B1813,2013-01-04 22:49:00,
2013-01-04 16:54:00,40.1,36.8,29.50,ENE,74,2.2,2.7,88,0.00,,,0.16,LWC V2.10 B1813,2013-01-04 22:54:00,
2013-01-04 16:59:00,40.1,36.8,29.50,ENE,67,0.0,2.2,88,0.00,,,0.16,LWC V2.10 B1813,2013-01-04 22:59:00,
2013-01-04 17:04:00,39.9,36.7,29.50,ENE,65,0.0,0.0,88,0.00,,,0.16,LWC V2.10 B1813,2013-01-04 23:04:00,
2013-01-04 17:09:00,39.9,36.7,29.50,ENE,65,0.0,0.0,88,0.00,,,0.16,LWC V2.10 B1813,2013-01-04 23:09:00,
2013-01-04 17:14:00,39.9,36.7,29.50,ENE,65,0.0,0.0,88,0.00,,,0.16,LWC V2.10 B1813,2013-01-04 23:14:00,
2013-01-04 17:19:00,39.9,36.7,29.50,ENE,63,2.2,2.7,88,0.00,,,0.16,LWC V2.10 B1813,2013-01-04 23:19:00,
2013-01-04 17:24:00,39.9,36.9,29.50,ENE,63,0.0,0.0,89,0.00,,,0.16,LWC V2.10 B1813,2013-01-04 23:24:00,
2013-01-04 17:29:00,39.9,36.9,29.50,ENE,63,0.0,0.0,89,0.00,,,0.16,LWC V2.10 B1813,2013-01-04 23:29:00,
2013-01-04 17:34:00,39.9,36.9,29.50,ENE,63,0.0,0.0,89,0.00,,,0.16,LWC V2.10 B1813,2013-01-04 23:34:00,
2013-01-04 17:39:00,39.9,36.9,29.50,ENE,63,0.0,0.0,89,0.00,,,0.16,LWC V2.10 B1813,2013-01-04 23:39:00,
2013-01-04 17:44:00,39.7,36.8,29.50,ENE,63,0.0,0.0,89,0.00,,,0.16,LWC V2.10 B1813,2013-01-04 23:44:00,
2013-01-04 17:49:00,39.7,36.8,29.50,ENE,63,0.0,0.0,89,0.00,,,0.16,LWC V2.10 B1813,2013-01-04 23:49:00,
2013-01-04 17:54:00,39.7,36.8,29.50,ENE,63,0.0,0.0,89,0.00,,,0.16,LWC V2.10 B1813,2013-01-04 23:54:00,
2013-01-04 17:59:00,39.7,36.8,29.53,ENE,63,0.0,0.0,89,0.00,,,0.16,LWC V2.10 B1813,2013-01-04 23:59:00,
2013-01-04 18:04:00,39.7,36.8,29.53,ENE,63,0.0,0.0,89,0.00,,,0.16,LWC V2.10 B1813,2013-01-05 00:04:00,
2013-01-04 18:09:00,39.7,36.8,29.53,ENE,63,0.0,0.0,89,0.00,,,0.16,LWC V2.10 B1813,2013-01-05 00:09:00,
2013-01-04 18:14:00,39.7,36.8,29.50,ENE,63,0.0,0.0,89,0.00,,,0.16,LWC V2.10 B1813,2013-01-05 00:14:00,
2013-01-04 18:19:00,39.7,37.1,29.50,ENE,63,0.0,0.0,90,0.04,,,0.24,LWC V2.10 B1813,2013-01-05 00:19:00,
2013-01-04 18:24:00,39.7,37.1,29.50,ENE,63,0.0,0.0,90,0.04,,,0.24,LWC V2.10 B1813,2013-01-05 00:24:00,
2013-01-04 18:29:00,39.7,37.1,29.53,ENE,63,0.0,0.0,90,0.04,,,0.24,LWC V2.10 B1813,2013-01-05 00:29:00,
2013-01-04 18:34:00,39.7,37.1,29.53,NNE,26,2.2,2.2,90,0.04,,,0.24,LWC V2.10 B1813,2013-01-05 00:34:00,
2013-01-04 18:39:00,39.7,37.1,29.53,NNE,31,0.0,2.7,90,0.04,,,0.24,LWC V2.10 B1813,2013-01-05 00:39:00,
2013-01-04 18:44:00,39.7,37.1,29.50,North,9,0.0,2.7,90,0.04,,,0.24,LWC V2.10 B1813,2013-01-05 00:44:00,
2013-01-04 18:49:00,39.7,37.1,29.50,North,350,2.7,2.7,90,0.04,,,0.24,LWC V2.10 B1813,2013-01-05 00:49:00,
2013-01-04 18:54:00,39.7,37.1,29.50,North,357,0.0,0.0,90,0.04,,,0.24,LWC V2.10 B1813,2013-01-05 00:54:00,
2013-01-04 18:59:00,39.7,37.1,29.50,NNE,19,2.7,3.1,90,0.04,,,0.24,LWC V2.10 B1813,2013-01-05 00:59:00,
2013-01-04 19:04:00,39.7,37.1,29.50,North,6,2.2,2.7,90,0.04,,,0.24,LWC V2.10 B1813,2013-01-05 01:04:00,
2013-01-04 19:09:00,39.7,37.1,29.50,NE,53,0.0,2.7,90,0.04,,,0.24,LWC V2.10 B1813,2013-01-05 01:09:00,
2013-01-04 19:14:00,39.7,37.1,29.50,NNE,33,0.0,0.0,90,0.04,,,0.24,LWC V2.10 B1813,2013-01-05 01:14:00,
2013-01-04 19:19:00,39.7,37.1,29.50,NNE,25,0.0,0.0,90,0.04,,,0.24,LWC V2.10 B1813,2013-01-05 01:19:00,
2013-01-04 19:24:00,39.7,37.1,29.50,NNE,25,0.0,0.0,90,0.04,,,0.24,LWC V2.10 B1813,2013-01-05 01:24:00,
2013-01-04 19:29:00,39.7,37.3,29.50,NNE,25,0.0,0.0,91,0.04,,,0.24,LWC V2.10 B1813,2013-01-05 01:29:00,
2013-01-04 19:34:00,39.7,37.3,29.50,NNE,25,0.0,0.0,91,0.04,,,0.24,LWC V2.10 B1813,2013-01-05 01:34:00,
2013-01-04 19:39:00,39.7,37.3,29.50,NNE,25,0.0,0.0,91,0.04,,,0.24,LWC V2.10 B1813,2013-01-05 01:39:00,
2013-01-04 19:44:00,39.7,37.3,29.50,NNE,25,0.0,0.0,91,0.04,,,0.24,LWC V2.10 B1813,2013-01-05 01:44:00,
2013-01-04 19:49:00,39.7,37.3,29.50,NNE,25,0.0,0.0,91,0.04,,,0.24,LWC V2.10 B1813,2013-01-05 01:49:00,
2013-01-04 19:54:00,39.7,37.3,29.50,NNE,25,0.0,0.0,91,0.04,,,0.24,LWC V2.10 B1813,2013-01-05 01:54:00,
2013-01-04 19:59:00,39.7,37.3,29.50,NNE,25,0.0,0.0,91,0.04,,,0.24,LWC V2.10 B1813,2013-01-05 01:59:00,
2013-01-04 20:04:00,39.9,37.5,29.50,NW,324,0.0,2.2,91,0.04,,,0.24,LWC V2.10 B1813,2013-01-05 02:04:00,
2013-01-04 20:09:00,39.9,37.5,29.50,NW,325,2.2,3.1,91,0.04,,,0.24,LWC V2.10 B1813,2013-01-05 02:09:00,
2013-01-04 20:14:00,39.9,37.5,29.50,NNW,335,0.0,3.1,91,0.04,,,0.24,LWC V2.10 B1813,2013-01-05 02:14:00,
2013-01-04 20:19:00,39.9,37.5,29.50,NW,318,3.1,3.1,91,0.04,,,0.24,LWC V2.10 B1813,2013-01-05 02:19:00,
2013-01-04 20:24:00,39.9,37.5,29.50,NW,315,0.0,3.6,91,0.00,,,0.24,LWC V2.10 B1813,2013-01-05 02:24:00,
2013-01-04 20:29:00,39.9,37.5,29.50,NW,318,0.0,2.2,91,0.00,,,0.24,LWC V2.10 B1813,2013-01-05 02:29:00,
2013-01-04 20:34:00,39.9,37.5,29.50,NW,319,0.0,0.0,91,0.00,,,0.24,LWC V2.10 B1813,2013-01-05 02:34:00,
2013-01-04 20:39:00,39.9,37.5,29.50,NW,318,0.0,0.0,91,0.00,,,0.24,LWC V2.10 B1813,2013-01-05 02:39:00,
2013-01-04 20:44:00,39.9,37.5,29.50,NW,316,0.0,0.0,91,0.00,,,0.24,LWC V2.10 B1813,2013-01-05 02:44:00,
2013-01-04 20:49:00,39.9,37.5,29.50,West,274,3.6,4.0,91,0.00,,,0.24,LWC V2.10 B1813,2013-01-05 02:49:00,
2013-01-04 20:54:00,39.9,37.5,29.50,West,267,2.7,2.7,91,0.00,,,0.24,LWC V2.10 B1813,2013-01-05 02:54:00,
2013-01-04 20:59:00,39.7,37.6,29.53,West,271,0.0,3.1,92,0.00,,,0.24,LWC V2.10 B1813,2013-01-05 02:59:00,
2013-01-04 21:04:00,39.9,37.8,29.53,West,271,0.0,0.0,92,0.00,,,0.24,LWC V2.10 B1813,2013-01-05 03:04:00,
2013-01-04 21:09:00,39.9,37.8,29.53,West,271,0.0,0.0,92,0.00,,,0.24,LWC V2.10 B1813,2013-01-05 03:09:00,
2013-01-04 21:14:00,39.7,37.6,29.53,West,267,0.0,3.1,92,0.00,,,0.24,LWC V2.10 B1813,2013-01-05 03:14:00,
2013-01-04 21:19:00,39.9,37.8,29.53,West,275,2.7,2.7,92,0.00,,,0.24,LWC V2.10 B1813,2013-01-05 03:19:00,
2013-01-04 21:24:00,39.7,37.6,29.53,West,268,0.0,3.6,92,0.00,,,0.24,LWC V2.10 B1813,2013-01-05 03:24:00,
2013-01-04 21:29:00,39.7,37.6,29.53,West,263,2.2,2.7,92,0.00,,,0.24,LWC V2.10 B1813,2013-01-05 03:29:00,
2013-01-04 21:34:00,39.7,37.6,29.53,West,269,3.1,3.1,92,0.00,,,0.24,LWC V2.10 B1813,2013-01-05 03:34:00,
2013-01-04 21:39:00,39.7,37.6,29.53,WNW,287,4.0,4.0,92,0.00,,,0.24,LWC V2.10 B1813,2013-01-05 03:39:00,
2013-01-04 21:44:00,39.7,37.6,29.53,West,275,2.7,3.1,92,0.00,,,0.24,LWC V2.10 B1813,2013-01-05 03:44:00,
2013-01-04 21:49:00,39.9,37.8,29.53,West,280,3.6,4.0,92,0.00,,,0.24,LWC V2.10 B1813,2013-01-05 03:49:00,
2013-01-04 21:54:00,39.9,37.8,29.53,West,262,2.2,2.7,92,0.00,,,0.24,LWC V2.10 B1813,2013-01-05 03:54:00,
2013-01-04 21:59:00,39.7,37.6,29.53,West,259,3.6,3.6,92,0.00,,,0.24,LWC V2.10 B1813,2013-01-05 03:59:00,
2013-01-04 22:04:00,39.7,37.6,29.53,West,268,2.7,3.6,92,0.00,,,0.24,LWC V2.10 B1813,2013-01-05 04:04:00,
2013-01-04 22:09:00,39.7,37.6,29.53,West,277,0.0,0.0,92,0.00,,,0.24,LWC V2.10 B1813,2013-01-05 04:09:00,
2013-01-04 22:14:00,39.9,37.8,29.53,WNW,294,3.1,3.1,92,0.00,,,0.28,LWC V2.10 B1813,2013-01-05 04:14:00,
2013-01-04 22:19:00,39.7,37.6,29.53,WNW,291,2.7,4.0,92,0.00,,,0.28,LWC V2.10 B1813,2013-01-05 04:19:00,
2013-01-04 22:24:00,39.7,37.6,29.53,WNW,303,3.1,3.1,92,0.00,,,0.28,LWC V2.10 B1813,2013-01-05 04:24:00,
2013-01-04 22:29:00,39.7,37.6,29.53,West,278,3.1,4.0,92,0.00,,,0.28,LWC V2.10 B1813,2013-01-05 04:29:00,
2013-01-04 22:34:00,39.7,37.6,29.53,West,277,3.1,3.1,92,0.00,,,0.28,LWC V2.10 B1813,2013-01-05 04:34:00,
2013-01-04 22:39:00,39.7,37.6,29.53,NW,310,0.0,2.7,92,0.00,,,0.28,LWC V2.10 B1813,2013-01-05 04:39:00,
2013-01-04 22:44:00,39.9,37.8,29.50,NW,324,0.0,0.0,92,0.00,,,0.28,LWC V2.10 B1813,2013-01-05 04:44:00,
2013-01-04 22:49:00,39.7,37.6,29.50,NW,310,0.0,0.0,92,0.00,,,0.28,LWC V2.10 B1813,2013-01-05 04:49:00,
2013-01-04 22:54:00,39.7,37.6,29.50,NW,320,0.0,0.0,92,0.00,,,0.28,LWC V2.10 B1813,2013-01-05 04:54:00,
2013-01-04 22:59:00,39.7,37.6,29.50,NW,320,0.0,0.0,92,0.00,,,0.28,LWC V2.10 B1813,2013-01-05 04:59:00,
2013-01-04 23:00:00,39.7,37.6,29.50,NW,320,0.0,0.0,92,0.00,,,0.28,LWC V2.10 B1813,2013-01-05 05:00:00,
2013-01-04 23:05:00,39.7,37.9,29.50,NW,304,0.0,0.0,93,0.00,,,0.28,LWC V2.10 B1813,2013-01-05 05:05:00,
2013-01-04 23:10:00,39.7,37.9,29.50,WNW,291,0.0,0.0,93,0.00,,,0.28,LWC V2.10 B1813,2013-01-05 05:10:00,
2013-01-04 23:15:00,39.9,38.1,29.50,WNW,290,0.0,0.0,93,0.00,,,0.28,LWC V2.10 B1813,2013-01-05 05:15:00,
2013-01-04 23:20:00,39.7,37.9,29.50,WNW,292,3.1,3.1,93,0.00,,,0.28,LWC V2.10 B1813,2013-01-05 05:20:00,
2013-01-04 23:25:00,39.7,37.9,29.50,NNW,332,0.0,2.7,93,0.00,,,0.28,LWC V2.10 B1813,2013-01-05 05:25:00,
2013-01-04 23:30:00,39.7,37.9,29.50,NW,311,0.0,0.0,93,0.00,,,0.28,LWC V2.10 B1813,2013-01-05 05:30:00,
2013-01-04 23:35:00,39.9,38.1,29.50,NW,311,0.0,0.0,93,0.04,,,0.31,LWC V2.10 B1813,2013-01-05 05:35:00,
2013-01-04 23:40:00,39.9,38.1,29.50,NW,311,0.0,0.0,93,0.04,,,0.31,LWC V2.10 B1813,2013-01-05 05:40:00,
2013-01-04 23:42:00,39.9,38.1,29.50,NW,311,0.0,0.0,93,0.04,,,0.31,LWC V2.10 B1813,2013-01-05 05:42:00,
2013-01-04 23:47:00,39.9,38.1,29.50,NW,311,0.0,0.0,93,0.04,,,0.31,LWC V2.10 B1813,2013-01-05 05:47:00,
2013-01-04 23:52:00,39.9,38.1,29.50,NW,311,0.0,0.0,93,0.04,,,0.31,LWC V2.10 B1813,2013-01-05 05:52:00,
2013-01-04 23:57:00,39.9,38.1,29.50,NW,311,0.0,0.0,93,0.04,,,0.31,LWC V2.10 B1813,2013-01-05 05:57:00,